This demonstration page uses our WeatherBlox Daily Observations layout. Learn more.

Left ArrowRight Arrow

39.92423, -83.80882

Hourly Observations for March 23, 2018

Temp ( °F °C ) Dew Point ( °F °C ) Humidity (%) Winds ( mph kmh ) Pressure ( in mb ) Visibility ( mi km ) Precip ( " mm )
12:56 am 00:56 Clear 29 -1.7 21 -6.1 72 72 W 7 11 30.30 1026 10 16 N/A
1:56 am 01:56 Clear 28 -2.2 21 -6.1 75 75 WNW 7 11 30.30 1026 10 16 N/A
2:56 am 02:56 Clear 27 -2.8 20 -6.7 75 75 W 6 9 30.29 1026 10 16 N/A
3:56 am 03:56 Clear 27 -2.8 20 -6.7 75 75 WNW 6 9 30.28 1026 10 16 N/A
4:56 am 04:56 Clear 26 -3.3 19 -7.2 75 75 W 7 11 30.29 1026 10 16 N/A
5:56 am 05:56 Clear 27 -2.8 20 -6.7 75 75 WNW 5 7 30.30 1026 10 16 N/A
6:56 am 06:56 Clear 27 -2.8 21 -6.1 78 78 WNW 7 11 30.30 1026 10 16 N/A
7:56 am 07:56 Sunny 25 -3.9 20 -6.7 81 81 WNW 8 13 30.32 1027 10 16 N/A
8:56 am 08:56 Sunny 30 -1.1 21 -6.1 69 69 NW 8 13 30.32 1027 10 16 N/A
9:48 am 09:48 Partly Cloudy with Light Wintry Mix 32 undefined 21 -6 64 64 NNW 9 15 30.36 1028 2 2 N/A
9:56 am 09:56 Sunny 32 undefined 20 -6.7 61 61 NNW 10 17 30.33 1027 10 16 N/A
10:56 am 10:56 Sunny 36 2.2 20 -6.7 52 52 NW 12 19 30.32 1027 10 16 N/A
11:56 am 11:56 Sunny 38 3.3 19 -7.2 46 46 NNW 10 17 30.32 1027 10 16 N/A
12:56 pm 12:56 Sunny 40 4.4 20 -6.7 45 45 NNW 10 17 30.32 1027 10 16 N/A
1:56 pm 13:56 Sunny 41 5 19 -7.2 41 41 NW 13 20 30.31 1026 10 16 N/A
2:56 pm 14:56 Sunny 43 6.1 20 -6.7 40 40 NNW 14 22 30.29 1026 10 16 N/A
3:56 pm 15:56 Sunny 44 6.7 22 -5.6 41 41 N 12 19 30.29 1026 10 16 N/A
4:56 pm 16:56 Sunny 43 6.1 20 -6.7 40 40 NNW 10 17 30.28 1026 10 16 N/A
5:56 pm 17:56 Sunny 43 6.1 22 -5.6 43 43 VRB 5 7 30.28 1026 10 16 N/A
6:56 pm 18:56 Sunny 41 5 22 -5.6 47 47 NNW 8 13 30.27 1025 10 16 N/A
7:56 pm 19:56 Clear 38 3.3 22 -5.6 52 52 NNW 6 9 30.27 1025 10 16 N/A
8:56 pm 20:56 Clear 35 1.7 22 -5.6 59 59 N N/A 30.28 1025 10 16 N/A
9:56 pm 21:56 Clear 33 0.6 21 -6.1 61 61 WSW 3 6 30.29 1026 10 16 N/A
10:56 pm 22:56 Clear 29 -1.7 22 -5.6 75 75 NE 3 6 30.28 1026 10 16 N/A
11:56 pm 23:56 Clear 28 -2.2 22 -5.6 78 78 ENE 8 13 30.29 1026 10 16 N/A

Powered by AerisWeather